Home   Weather   Durham   Past weeks

Flag for United Kingdom Past Weather in Durham, England, United Kingdom — Yesterday and Last 2 Weeks

Now
43 °F

Passing clouds.


Feels Like: 43 °F
Forecast: 35 / 46 °F
Wind: 1 mph from West

Location: Newcastle

Current Time: Jan 19, 2017 at 6:26:47 am

Latest Report: Jan 19, 2017 at 5:50 am


Visibility: N/A

Pressure: 30.57 "Hg

Humidity: 87%

Dew Point: 39 °F

Location of DurhamLocation

Past Weather in Durham — Graph

°F

Durham Temperature Yesterday

Maximum temperature yesterday: 46 °F (at 12:20 am)
Minimum temperature yesterday: 43 °F (at 2:50 am)
Average temperature yesterday: 46 °F

High & Low Weather Summary for the Past Weeks

 TemperatureHumidityPressure
High52 °F (Jan 11, 1:50 am)100% (Jan 4, 5:20 am)30.60 "Hg (Jan 4, 5:20 am)
Low28 °F (Jan 5, 4:50 am)61% (Jan 4, 11:50 am)29.27 "Hg (Jan 11, 2:20 am)
Average41 °F90%30.11 "Hg
* Reported Jan 4 5:20 am — Jan 19 5:20 am, Durham, Weather by CustomWeather, © 2017

Note: Actual official high and low records may vary slightly from our data, if they occured in-between our weather recording intervals... More about our weather records

Advertising

Durham Weather History for the Previous 24 Hours

Scroll right to see more
 ConditionsComfort  
Time TempWeatherWind HumidityBarometerVisibility
5:20 am
Thu, Jan 19
41 °FPassing clouds.6 mph93%30.57 "HgN/A
4:50 am41 °FPassing clouds.2 mph93%30.57 "HgN/A
4:20 am43 °FPassing clouds.3 mph87%30.57 "HgN/A
3:50 am43 °FPassing clouds.3 mph87%30.57 "HgN/A
3:20 am43 °FPassing clouds.3 mph87%30.57 "HgN/A
2:50 am43 °FPassing clouds.5 mph87%30.57 "HgN/A
2:20 am41 °FPassing clouds.5 mph87%30.57 "HgN/A
1:50 am43 °FPassing clouds.2 mph87%30.57 "HgN/A
1:20 am43 °FPassing clouds.6 mph87%30.57 "HgN/A
12:50 am45 °FPassing clouds.5 mph81%30.57 "HgN/A
12:20 am45 °FPassing clouds.6 mph81%30.57 "HgN/A
11:50 pm
Wed, Jan 18
45 °FPassing clouds.5 mph81%30.60 "HgN/A
11:20 pm45 °FPassing clouds.5 mph81%30.60 "HgN/A
10:50 pm45 °FPassing clouds.6 mph81%30.60 "HgN/A
10:20 pm45 °FPassing clouds.8 mph81%30.60 "HgN/A
9:50 pm45 °FPassing clouds.7 mph81%30.60 "HgN/A
9:20 pm45 °FPassing clouds.5 mph81%30.60 "HgN/A
8:50 pm45 °FPassing clouds.6 mph81%30.60 "HgN/A
8:20 pm45 °FPassing clouds.8 mph81%30.60 "HgN/A
7:50 pm45 °FPassing clouds.8 mph81%30.60 "HgN/A
7:20 pm45 °FPassing clouds.8 mph81%30.60 "HgN/A
6:50 pm45 °FPassing clouds.8 mph81%30.60 "HgN/A
6:20 pm45 °FPassing clouds.6 mph81%30.57 "HgN/A
5:50 pm45 °FPassing clouds.8 mph81%30.57 "HgN/A
5:20 pm45 °FPassing clouds.9 mph81%30.60 "HgN/A
4:50 pm46 °FPassing clouds.8 mph82%30.57 "HgN/A
4:20 pm46 °FPassing clouds.13 mph76%30.57 "HgN/A
3:50 pm46 °FPartly sunny.9 mph82%30.57 "HgN/A
3:20 pm46 °FPartly sunny.9 mph82%30.57 "HgN/A
2:50 pm46 °FPartly sunny.12 mph82%30.57 "HgN/A
2:20 pm46 °FPartly sunny.13 mph82%30.57 "HgN/A
1:50 pm46 °FPartly sunny.15 mph82%30.57 "HgN/A
1:20 pm46 °FPartly sunny.8 mph82%30.57 "HgN/A
12:50 pm46 °FPartly sunny.10 mph87%30.57 "HgN/A
12:20 pm46 °FPartly sunny.13 mph87%30.57 "HgN/A
11:50 am46 °FPartly sunny.10 mph87%30.57 "HgN/A
11:20 am46 °FPartly sunny.8 mph87%30.57 "HgN/A
10:50 am46 °FPartly sunny.7 mph87%30.57 "HgN/A
10:20 am46 °FPartly sunny.8 mph87%30.57 "HgN/A
9:50 am46 °FPartly sunny.8 mph87%30.57 "HgN/A
9:20 am46 °FPartly sunny.10 mph87%30.57 "HgN/A
8:50 am46 °FPartly sunny.7 mph87%30.57 "HgN/A
8:20 am46 °FPartly sunny.5 mph87%30.57 "HgN/A
7:50 am46 °FPassing clouds.7 mph87%30.54 "HgN/A
7:20 am46 °FPassing clouds.13 mph87%30.54 "HgN/A
6:50 am46 °FPassing clouds.10 mph87%30.54 "HgN/A
6:20 am46 °FPassing clouds.15 mph87%30.54 "HgN/A
Weather by CustomWeather, © 2017

See weather overviewHow to use our weather pages